CDT,Max TemperatureF,Mean TemperatureF,Min TemperatureF,Max Dew PointF,MeanDew PointF,Min DewpointF,Max Humidity, Mean Humidity, Min Humidity, Max Sea Level PressureIn, Mean Sea Level PressureIn, Min Sea Level PressureIn, Max VisibilityMiles, Mean VisibilityMiles, Min VisibilityMiles, Max Wind SpeedMPH, Mean Wind SpeedMPH, Max Gust SpeedMPH,PrecipitationIn, CloudCover, Events, WindDirDegrees
2013-5-1,84,73,62,59,51,46,82,44,27,30.15,30.11,30.05,20,18,15,15,8,23,0.00,1,,164
2013-5-2,48,46,44,41,39,37,87,77,71,30.24,30.20,30.16,15,11,10,17,14,32,0.00,5,,354
2013-5-3,48,44,41,45,42,39,93,91,87,30.09,30.03,29.97,10,8,7,22,12,,0.00,8,Rain,7
2013-5-4,71,60,50,48,45,43,88,58,41,30.04,29.99,29.96,15,14,10,14,6,23,0.00,6,,57
2013-5-5,62,55,48,45,43,41,82,68,52,30.04,30.01,29.99,20,17,15,14,4,21,0.00,6,,17
2013-5-6,82,65,48,50,42,41,82,62,32,30.05,30.01,29.86,20,14,10,9,5,,0.00,6,,359
2013-5-7,64,55,46,46,42,41,87,62,45,30.07,30.03,30.01,20,19,15,7,4,,0.00,3,,15
2013-5-8,73,60,48,50,43,37,87,53,31,30.06,30.02,29.98,20,18,12,13,3,,0.00,2,,39
2013-5-9,77,64,51,59,53,45,88,65,36,29.97,29.93,29.86,20,12,7,14,4,29,0.00,7,Rain,191
2013-5-10,50,46,42,48,42,39,94,89,81,29.98,29.92,29.79,10,6,2,17,12,37,0.00,8,,333
2013-5-11,64,55,44,50,42,34,87,70,39,30.02,29.92,29.85,15,12,5,18,6,37,0.00,6,,275
2013-5-12,50,46,41,34,29,23,66,50,40,30.13,30.10,30.05,20,20,15,14,9,28,0.00,3,,12
2013-5-13,59,47,35,37,32,27,87,50,31,30.19,30.13,30.06,15,11,10,15,3,,0.00,2,,49
2013-5-14,89,73,57,55,47,32,45,36,24,29.90,29.77,29.67,20,14,10,18,11,30,0.00,1,,205
2013-5-15,80,72,60,52,48,45,68,42,30,29.85,29.81,29.69,20,14,10,14,11,30,0.00,4,,336
2013-5-16,80,66,51,54,46,41,94,53,26,29.98,29.93,29.88,20,18,10,10,3,,0.00,3,,44
2013-5-17,86,65,55,57,51,41,82,62,20,30.05,30.01,29.78,20,11,10,9,4,,0.00,7,Rain,138
2013-5-18,78,70,62,57,55,48,73,59,44,30.08,30.03,29.98,10,10,10,12,7,,0.00,4,,104
2013-5-19,87,74,60,64,61,57,94,57,37,29.97,29.89,29.80,10,9,7,14,8,,0.00,4,,141
2013-5-20,91,83,75,66,58,48,73,46,23,29.83,29.79,29.74,15,13,10,26,13,37,0.00,5,,188
2013-5-21,82,73,64,64,62,61,94,67,51,29.76,29.73,29.68,20,16,10,17,9,29,0.00,5,,195
2013-5-22,75,70,66,64,59,52,88,68,44,29.75,29.68,29.65,15,11,2,23,8,33,0.00,7,Rain,225
2013-5-23,51,48,44,50,41,34,94,78,62,30.26,30.06,29.82,15,10,2,26,18,48,0.00,6,Rain,342
2013-5-24,51,46,42,39,35,25,76,62,35,30.44,30.39,30.32,20,19,15,14,12,23,0.00,1,,13
2013-5-25,53,48,44,43,41,39,87,71,62,30.42,30.36,30.32,20,16,15,7,2,,0.00,8,,11
2013-5-26,69,58,48,52,46,41,87,59,35,30.31,30.24,30.17,15,11,10,9,4,,0.00,7,,134
2013-5-27,64,60,57,59,56,48,94,84,72,30.07,29.98,29.86,10,8,3,15,11,23,0.00,8,Rain,123
2013-5-28,80,73,66,68,65,63,88,77,61,29.89,29.82,29.78,10,9,2,21,11,40,0.00,8,Rain-Thunderstorm,203
2013-5-29,86,77,68,64,61,43,88,63,35,29.97,29.93,29.87,20,13,10,17,7,21,0.00,5,,206
2013-5-30,84,78,73,72,66,63,83,64,51,29.95,29.91,29.85,15,12,7,20,13,37,0.00,5,Rain-Thunderstorm,179
2013-5-31,78,73,68,66,64,63,88,73,61,29.90,29.84,29.77,20,16,10,14,10,28,0.00,7,,179